| time (UTC) | temp C | wind direction | speed KPH | gust KPH | rain 1hr cm | rain 24hr cm | rain mn cm | humidity % | barometer mb |
| 20260504004732 | 1 | 65 | 8.0 | 9.7 | 0.00 | 0.00 | 0.00 | 71 | 1020.6 |
| 20260504004232 | 1 | 75 | 4.8 | 3.2 | 0.00 | 0.00 | 0.00 | 71 | 1020.5 |
| 20260504003733 | 1 | 58 | 9.7 | 6.4 | 0.00 | 0.00 | 0.00 | 71 | 1020.5 |
| 20260504003233 | 1 | 30 | 9.7 | 8.0 | 0.00 | 0.00 | 0.00 | 71 | 1020.4 |
| 20260504002733 | 1 | 31 | 11.3 | 11.3 | 0.00 | 0.00 | 0.00 | 71 | 1020.4 |
| 20260504002231 | 1 | 21 | 11.3 | 8.0 | 0.00 | 0.00 | 0.00 | 71 | 1020.3 |
| 20260504001732 | 1 | 21 | 11.3 | 11.3 | 0.00 | 0.00 | 0.00 | 71 | 1020.3 |
| 20260504001232 | 1 | 37 | 8.0 | 8.0 | 0.00 | 0.00 | 0.00 | 71 | 1020.2 |
| 20260504000732 | 1 | 20 | 9.7 | 8.0 | 0.00 | 0.00 | 0.00 | 71 | 1020.1 |
| 20260504000234 | 1 | 31 | 11.3 | 11.3 | 0.00 | 0.00 | 0.00 | 71 | 1020.1 |
| 20260503235733 | 1 | 35 | 9.7 | 12.9 | 0.00 | 0.00 | 0.00 | 71 | 1020.0 |
| 20260503235230 | 1 | 105 | 4.8 | 3.2 | 0.00 | 0.00 | 0.00 | 71 | 1019.9 |
| 20260503234731 | 1 | 100 | 8.0 | 6.4 | 0.00 | 0.00 | 0.00 | 70 | 1019.8 |
| 20260503234231 | 1 | 83 | 8.0 | 9.7 | 0.00 | 0.00 | 0.00 | 71 | 1019.8 |
| 20260503233731 | 1 | 105 | 8.0 | 3.2 | 0.00 | 0.00 | 0.00 | 71 | 1019.7 |
| 20260503233232 | 1 | 76 | 8.0 | 9.7 | 0.00 | 0.00 | 0.00 | 71 | 1019.7 |
| 20260503232732 | 1 | 52 | 6.4 | 4.8 | 0.00 | 0.00 | 0.00 | 71 | 1019.6 |
| 20260503232230 | 1 | 111 | 8.0 | 8.0 | 0.00 | 0.00 | 0.00 | 71 | 1019.7 |
| 20260503231730 | 1 | 66 | 6.4 | 3.2 | 0.00 | 0.00 | 0.00 | 71 | 1019.4 |
| 20260503231231 | 1 | 82 | 6.4 | 4.8 | 0.00 | 0.00 | 0.00 | 71 | 1019.3 |
| 20260503230731 | 1 | 34 | 8.0 | 12.9 | 0.00 | 0.00 | 0.00 | 71 | 1019.2 |
| 20260503230231 | 1 | 42 | 8.0 | 6.4 | 0.00 | 0.00 | 0.00 | 71 | 1019.1 |
| 20260503225732 | 1 | 60 | 3.2 | 3.2 | 0.00 | 0.00 | 0.00 | 71 | 1019.1 |
| 20260503225229 | 1 | 69 | 6.4 | 6.4 | 0.00 | 0.00 | 0.00 | 70 | 1019.0 |
| 20260503224730 | 1 | 55 | 6.4 | 3.2 | 0.00 | 0.00 | 0.00 | 69 | 1018.9 |
| 20260503224230 | 1 | 75 | 4.8 | 3.2 | 0.00 | 0.00 | 0.00 | 69 | 1018.9 |
| 20260503223731 | 1 | 120 | 6.4 | 4.8 | 0.00 | 0.00 | 0.00 | 69 | 1018.7 |
| 20260503223231 | 1 | 66 | 4.8 | 0.0 | 0.00 | 0.00 | 0.00 | 70 | 1018.7 |
| 20260503222731 | 1 | 77 | 9.7 | 9.7 | 0.00 | 0.00 | 0.00 | 69 | 1018.6 |
| 20260503222229 | 1 | 91 | 9.7 | 9.7 | 0.00 | 0.00 | 0.00 | 69 | 1018.6 |
| 20260503221729 | 1 | 113 | 3.2 | 4.8 | 0.00 | 0.00 | 0.00 | 70 | 1018.5 |
| 20260503221230 | 1 | 55 | 6.4 | 8.0 | 0.00 | 0.00 | 0.00 | 70 | 1018.5 |
| 20260503220730 | 1 | 48 | 4.8 | 6.4 | 0.00 | 0.00 | 0.00 | 70 | 1018.3 |
| 20260503220230 | 1 | 53 | 9.7 | 9.7 | 0.00 | 0.00 | 0.00 | 69 | 1018.3 |
| 20260503215731 | 1 | 63 | 4.8 | 9.7 | 0.00 | 0.00 | 0.00 | 69 | 1018.2 |
| 20260503215228 | 1 | 28 | 6.4 | 6.4 | 0.00 | 0.00 | 0.00 | 69 | 1018.2 |
| 20260503214729 | 1 | 76 | 6.4 | 1.6 | 0.00 | 0.00 | 0.00 | 69 | 1018.2 |
| 20260503214229 | 1 | 107 | 0.0 | 9.7 | 0.00 | 0.00 | 0.00 | 69 | 1018.2 |
| 20260503213730 | 1 | 27 | 8.0 | 6.4 | 0.00 | 0.00 | 0.00 | 69 | 1018.2 |
| 20260503213230 | 1 | 30 | 8.0 | 11.3 | 0.00 | 0.00 | 0.00 | 69 | 1018.2 |
| 20260503212730 | 1 | 73 | 8.0 | 8.0 | 0.00 | 0.00 | 0.00 | 68 | 1018.2 |
| 20260503212228 | 1 | 42 | 6.4 | 4.8 | 0.00 | 0.00 | 0.00 | 69 | 1018.1 |
| 20260503211728 | 1 | 70 | 6.4 | 9.7 | 0.00 | 0.00 | 0.00 | 70 | 1018.0 |
| 20260503211229 | 1 | 59 | 11.3 | 9.7 | 0.00 | 0.00 | 0.00 | 69 | 1018.0 |
| 20260503210729 | 1 | 100 | 12.9 | 6.4 | 0.00 | 0.00 | 0.00 | 70 | 1017.9 |
| 20260503210229 | 1 | 70 | 9.7 | 8.0 | 0.00 | 0.00 | 0.00 | 69 | 1017.9 |
| 20260503205730 | 1 | 55 | 9.7 | 12.9 | 0.00 | 0.00 | 0.00 | 69 | 1017.9 |
| 20260503205227 | 1 | 82 | 11.3 | 14.5 | 0.00 | 0.00 | 0.00 | 68 | 1017.9 |
| 20260503204728 | 1 | 72 | 9.7 | 9.7 | 0.00 | 0.00 | 0.00 | 69 | 1017.9 |
| 20260503204228 | 1 | 69 | 8.0 | 11.3 | 0.00 | 0.00 | 0.00 | 70 | 1017.8 |
| 20260503203728 | 1 | 1 | 11.3 | 11.3 | 0.00 | 0.00 | 0.00 | 70 | 1017.9 |
| 20260503203229 | 1 | 69 | 9.7 | 3.2 | 0.00 | 0.00 | 0.00 | 70 | 1017.9 |
| 20260503202729 | 1 | 51 | 6.4 | 9.7 | 0.00 | 0.00 | 0.00 | 71 | 1017.9 |
| 20260503202227 | 0 | 17 | 8.0 | 11.3 | 0.00 | 0.00 | 0.00 | 70 | 1017.8 |
| 20260503201727 | 1 | 34 | 4.8 | 4.8 | 0.00 | 0.00 | 0.00 | 71 | 1017.8 |
| 20260503201228 | 0 | 80 | 11.3 | 14.5 | 0.00 | 0.00 | 0.00 | 71 | 1017.7 |
| 20260503200728 | 0 | 65 | 9.7 | 11.3 | 0.00 | 0.00 | 0.00 | 71 | 1017.7 |
| 20260503200228 | 0 | 59 | 9.7 | 8.0 | 0.00 | 0.00 | 0.00 | 72 | 1017.7 |
| 20260503195729 | 0 | 15 | 9.7 | 8.0 | 0.00 | 0.00 | 0.00 | 72 | 1017.6 |
| 20260503195226 | 0 | 69 | 6.4 | 9.7 | 0.00 | 0.00 | 0.00 | 73 | 1017.6 |
| 20260503194727 | 0 | 63 | 8.0 | 11.3 | 0.00 | 0.00 | 0.00 | 73 | 1017.6 |
| 20260503194227 | 0 | 32 | 4.8 | 8.0 | 0.00 | 0.00 | 0.00 | 75 | 1017.6 |
| 20260503193728 | 0 | 38 | 12.9 | 11.3 | 0.00 | 0.00 | 0.00 | 73 | 1017.6 |
| 20260503193228 | 0 | 24 | 9.7 | 6.4 | 0.00 | 0.00 | 0.00 | 74 | 1017.6 |
| 20260503192728 | 0 | 49 | 9.7 | 8.0 | 0.00 | 0.00 | 0.00 | 74 | 1017.6 |
| 20260503192226 | 0 | 65 | 4.8 | 9.7 | 0.00 | 0.00 | 0.00 | 74 | 1017.6 |
| 20260503191727 | 0 | 18 | 8.0 | 11.3 | 0.00 | 0.00 | 0.00 | 74 | 1017.6 |
| 20260503191227 | 0 | 44 | 4.8 | 9.7 | 0.00 | 0.00 | 0.00 | 74 | 1017.5 |
| 20260503190727 | 0 | 55 | 8.0 | 8.0 | 0.00 | 0.00 | 0.00 | 74 | 1017.5 |
| 20260503190228 | 0 | 44 | 8.0 | 11.3 | 0.00 | 0.00 | 0.00 | 74 | 1017.4 |
| 20260503185728 | 0 | 27 | 8.0 | 9.7 | 0.00 | 0.00 | 0.00 | 75 | 1017.4 |
| 20260503185226 | 0 | 53 | 11.3 | 14.5 | 0.00 | 0.00 | 0.00 | 75 | 1017.3 |
| 20260503184726 | 0 | 84 | 11.3 | 8.0 | 0.00 | 0.00 | 0.00 | 75 | 1017.3 |
| 20260503184226 | 0 | 75 | 9.7 | 9.7 | 0.00 | 0.00 | 0.00 | 75 | 1017.2 |
| 20260503183727 | -1 | 44 | 9.7 | 11.3 | 0.00 | 0.00 | 0.00 | 75 | 1017.2 |
| 20260503183227 | 0 | 70 | 8.0 | 16.1 | 0.00 | 0.00 | 0.00 | 76 | 1017.1 |
| 20260503182727 | -1 | 76 | 6.4 | 8.0 | 0.00 | 0.00 | 0.00 | 76 | 1017.1 |
| 20260503182225 | -1 | 59 | 8.0 | 6.4 | 0.00 | 0.00 | 0.00 | 77 | 1017.1 |
| 20260503181725 | -1 | 4 | 11.3 | 12.9 | 0.00 | 0.00 | 0.00 | 77 | 1017.0 |
| 20260503181226 | -1 | 30 | 12.9 | 9.7 | 0.00 | 0.00 | 0.00 | 76 | 1017.0 |
| 20260503180726 | -1 | 35 | 9.7 | 8.0 | 0.00 | 0.00 | 0.00 | 77 | 1017.0 |
| 20260503180226 | -1 | 76 | 6.4 | 8.0 | 0.00 | 0.00 | 0.00 | 77 | 1017.0 |
| 20260503175727 | -1 | 60 | 8.0 | 6.4 | 0.00 | 0.00 | 0.00 | 77 | 1017.0 |
| 20260503175224 | -1 | 32 | 6.4 | 9.7 | 0.00 | 0.00 | 0.00 | 78 | 1016.9 |
| 20260503174724 | -1 | 55 | 11.3 | 12.9 | 0.00 | 0.00 | 0.00 | 77 | 1016.8 |
| 20260503174225 | -1 | 86 | 8.0 | 12.9 | 0.00 | 0.00 | 0.00 | 78 | 1016.8 |
| 20260503173725 | -1 | 93 | 3.2 | 1.6 | 0.00 | 0.00 | 0.00 | 79 | 1016.8 |
| 20260503173225 | -1 | 31 | 4.8 | 11.3 | 0.00 | 0.00 | 0.00 | 78 | 1016.8 |
| 20260503172726 | -1 | 24 | 6.4 | 11.3 | 0.00 | 0.00 | 0.00 | 79 | 1016.7 |
| 20260503172223 | -1 | 73 | 6.4 | 8.0 | 0.00 | 0.00 | 0.00 | 79 | 1016.7 |
| 20260503171724 | -2 | 25 | 8.0 | 9.7 | 0.00 | 0.00 | 0.00 | 79 | 1016.6 |
| 20260503171224 | -2 | 42 | 8.0 | 8.0 | 0.00 | 0.00 | 0.00 | 79 | 1016.7 |
| 20260503170724 | -1 | 77 | 9.7 | 4.8 | 0.00 | 0.00 | 0.00 | 80 | 1016.6 |
| 20260503170225 | -2 | 37 | 8.0 | 11.3 | 0.00 | 0.00 | 0.00 | 79 | 1016.6 |
| 20260503150721 | -2 | 56 | 8.0 | 9.7 | 0.00 | 0.00 | 0.00 | 82 | 1015.9 |
| 20260503150221 | -2 | 66 | 6.4 | 9.7 | 0.00 | 0.00 | 0.00 | 83 | 1015.8 |
| 20260503140219 | -3 | 98 | 6.4 | 4.8 | 0.00 | 0.00 | 0.00 | 85 | 1015.2 |
| 20260503131216 | -3 | 72 | 8.0 | 3.2 | 0.00 | 0.00 | 0.00 | 90 | 1014.9 |
| 20260503130717 | -3 | 49 | 9.7 | 9.7 | 0.00 | 0.00 | 0.00 | 90 | 1014.9 |
| 20260503130217 | -3 | 48 | 6.4 | 11.3 | 0.00 | 0.00 | 0.00 | 90 | 1014.9 |
| 20260503120214 | -3 | 80 | 9.7 | 9.7 | 0.00 | 0.00 | 0.00 | 91 | 1014.3 |
| 20260503110710 | -2 | 65 | 8.0 | 9.7 | 0.00 | 0.00 | 0.00 | 91 | 1013.4 |
| 20260503110210 | -2 | 55 | 9.7 | 14.5 | 0.00 | 0.00 | 0.00 | 91 | 1013.3 |
| 20260503100207 | -2 | 86 | 9.7 | 8.0 | 0.00 | 0.00 | 0.00 | 89 | 1012.1 |
| 20260503090204 | -1 | 94 | 6.4 | 4.8 | 0.00 | 0.00 | 0.00 | 88 | 1011.5 |
| 20260503081201 | -1 | 35 | 8.0 | 9.7 | 0.00 | 0.00 | 0.00 | 88 | 1010.9 |
| 20260503080701 | -1 | 107 | 4.8 | 3.2 | 0.00 | 0.00 | 0.00 | 88 | 1010.9 |
| 20260503080201 | 0 | 41 | 6.4 | 3.2 | 0.00 | 0.00 | 0.00 | 87 | 1010.9 |
| 20260503072700 | 0 | 68 | 9.7 | 9.7 | 0.00 | 0.00 | 0.00 | 87 | 1010.5 |
| 20260503072158 | 0 | 69 | 9.7 | 4.8 | 0.00 | 0.00 | 0.00 | 87 | 1010.4 |
| 20260503071658 | 0 | 136 | 9.7 | 4.8 | 0.00 | 0.00 | 0.00 | 86 | 1010.4 |
| 20260503071158 | 0 | 3 | 8.0 | 11.3 | 0.00 | 0.00 | 0.00 | 87 | 1010.4 |
| 20260503070659 | 0 | 79 | 9.7 | 12.9 | 0.00 | 0.00 | 0.00 | 87 | 1010.3 |
| 20260503070159 | 0 | 89 | 9.7 | 4.8 | 0.00 | 0.00 | 0.00 | 88 | 1010.2 |
| 20260503060156 | 0 | 76 | 11.3 | 6.4 | 0.00 | 0.00 | 0.00 | 89 | 1009.7 |
| 20260503054654 | 0 | 104 | 11.3 | 6.4 | 0.00 | 0.00 | 0.00 | 85 | 1009.7 |
| 20260503054154 | 0 | 97 | 9.7 | 14.5 | 0.00 | 0.00 | 0.00 | 84 | 1009.6 |
| 20260503053655 | 0 | 75 | 4.8 | 6.4 | 0.00 | 0.00 | 0.00 | 84 | 1009.5 |
| 20260503053155 | 0 | 76 | 6.4 | 4.8 | 0.00 | 0.00 | 0.00 | 84 | 1009.5 |
| 20260503052655 | 0 | 44 | 9.7 | 0.0 | 0.00 | 0.00 | 0.00 | 83 | 1009.4 |
| 20260503052153 | 0 | 68 | 6.4 | 9.7 | 0.00 | 0.00 | 0.00 | 82 | 1009.4 |
| 20260503051653 | 0 | 77 | 3.2 | 11.3 | 0.00 | 0.00 | 0.00 | 81 | 1009.4 |
| 20260503051153 | 0 | 124 | 9.7 | 6.4 | 0.00 | 0.00 | 0.00 | 81 | 1009.4 |
| 20260503050654 | 0 | 75 | 9.7 | 9.7 | 0.00 | 0.00 | 0.00 | 81 | 1009.4 |
| 20260503050154 | 0 | 68 | 8.0 | 6.4 | 0.00 | 0.00 | 0.00 | 81 | 1009.4 |
| 20260503045654 | 0 | 69 | 4.8 | 9.7 | 0.00 | 0.00 | 0.00 | 81 | 1009.4 |
| 20260503045152 | 1 | 72 | 8.0 | 16.1 | 0.00 | 0.00 | 0.00 | 80 | 1009.4 |
| 20260503044652 | 1 | 65 | 6.4 | 3.2 | 0.00 | 0.00 | 0.00 | 80 | 1009.4 |
| 20260503044152 | 1 | 75 | 6.4 | 6.4 | 0.00 | 0.00 | 0.00 | 79 | 1009.4 |
| 20260503043653 | 1 | 97 | 9.7 | 8.0 | 0.00 | 0.00 | 0.00 | 79 | 1009.4 |
| 20260503043153 | 1 | 93 | 8.0 | 12.9 | 0.00 | 0.00 | 0.00 | 79 | 1009.4 |
| 20260503042653 | 1 | 131 | 9.7 | 8.0 | 0.00 | 0.00 | 0.00 | 79 | 1009.3 |
| 20260503042151 | 1 | 82 | 8.0 | 14.5 | 0.00 | 0.00 | 0.00 | 78 | 1009.2 |
| 20260503041651 | 1 | 97 | 9.7 | 6.4 | 0.00 | 0.00 | 0.00 | 78 | 1009.2 |
| 20260503041152 | 1 | 66 | 6.4 | 12.9 | 0.00 | 0.00 | 0.00 | 79 | 1009.2 |
| 20260503040652 | 1 | 49 | 9.7 | 8.0 | 0.00 | 0.00 | 0.00 | 79 | 1009.1 |
| 20260503040152 | 1 | 84 | 8.0 | 4.8 | 0.00 | 0.00 | 0.00 | 79 | 1009.1 |
| 20260503035653 | 1 | 94 | 8.0 | 8.0 | 0.00 | 0.00 | 0.00 | 78 | 1009.0 |
| 20260503035150 | 1 | 79 | 11.3 | 16.1 | 0.00 | 0.00 | 0.00 | 78 | 1008.9 |
| 20260503034650 | 1 | 111 | 6.4 | 9.7 | 0.00 | 0.00 | 0.00 | 78 | 1008.8 |
| 20260503034151 | 1 | 94 | 9.7 | 4.8 | 0.00 | 0.00 | 0.00 | 78 | 1008.7 |
| 20260503033651 | 1 | 152 | 6.4 | 4.8 | 0.00 | 0.00 | 0.00 | 79 | 1008.7 |
| 20260503033151 | 1 | 75 | 9.7 | 8.0 | 0.00 | 0.00 | 0.00 | 78 | 1008.6 |
| 20260503032652 | 1 | 91 | 4.8 | 4.8 | 0.00 | 0.00 | 0.00 | 78 | 1008.5 |
| 20260503032149 | 2 | 76 | 4.8 | 8.0 | 0.00 | 0.00 | 0.00 | 78 | 1008.4 |
| 20260503031650 | 2 | 60 | 9.7 | 8.0 | 0.00 | 0.00 | 0.00 | 77 | 1008.3 |
| 20260503031150 | 2 | 87 | 6.4 | 9.7 | 0.00 | 0.00 | 0.00 | 77 | 1008.3 |
| 20260503030650 | 2 | 60 | 4.8 | 9.7 | 0.00 | 0.00 | 0.00 | 77 | 1008.1 |
| 20260503030150 | 2 | 124 | 11.3 | 6.4 | 0.00 | 0.00 | 0.00 | 76 | 1008.0 |
| 20260503025651 | 2 | 111 | 6.4 | 8.0 | 0.00 | 0.00 | 0.00 | 75 | 1008.0 |
| 20260503025148 | 2 | 79 | 6.4 | 3.2 | 0.00 | 0.00 | 0.00 | 75 | 1008.0 |
| 20260503024649 | 2 | 90 | 8.0 | 6.4 | 0.00 | 0.00 | 0.00 | 75 | 1008.0 |
| 20260503024149 | 2 | 80 | 0.0 | 0.0 | 0.00 | 0.00 | 0.00 | 75 | 1007.9 |
| 20260503023650 | 2 | 80 | 0.0 | 0.0 | 0.00 | 0.00 | 0.00 | 74 | 1007.8 |
| 20260503023150 | 2 | 80 | 4.8 | 0.0 | 0.00 | 0.00 | 0.00 | 74 | 1007.8 |
| 20260503022650 | 2 | 124 | 8.0 | 9.7 | 0.00 | 0.00 | 0.00 | 74 | 1007.9 |
| 20260503022148 | 2 | 128 | 8.0 | 4.8 | 0.00 | 0.00 | 0.00 | 74 | 1008.1 |
| 20260503021648 | 2 | 75 | 8.0 | 4.8 | 0.00 | 0.00 | 0.00 | 74 | 1008.1 |
| 20260503021149 | 2 | 97 | 8.0 | 6.4 | 0.00 | 0.00 | 0.00 | 73 | 1008.0 |
| 20260503020649 | 2 | 69 | 8.0 | 9.7 | 0.00 | 0.00 | 0.00 | 73 | 1007.8 |
| 20260503020150 | 2 | 105 | 8.0 | 4.8 | 0.00 | 0.00 | 0.00 | 72 | 1007.8 |
| 20260503015650 | 2 | 87 | 11.3 | 3.2 | 0.00 | 0.00 | 0.00 | 72 | 1007.7 |
| 20260503015148 | 3 | 97 | 9.7 | 8.0 | 0.00 | 0.00 | 0.00 | 72 | 1007.7 |
| 20260503014648 | 3 | 77 | 6.4 | 9.7 | 0.00 | 0.00 | 0.00 | 71 | 1007.7 |
| 20260503014148 | 3 | 101 | 9.7 | 6.4 | 0.00 | 0.00 | 0.00 | 71 | 1007.5 |
| 20260503013649 | 3 | 48 | 9.7 | 6.4 | 0.00 | 0.00 | 0.00 | 70 | 1007.5 |
| 20260503013149 | 3 | 128 | 11.3 | 11.3 | 0.00 | 0.00 | 0.00 | 70 | 1007.6 |
| 20260503012650 | 3 | 117 | 8.0 | 8.0 | 0.00 | 0.00 | 0.00 | 70 | 1007.6 |
| 20260503012148 | 3 | 84 | 8.0 | 8.0 | 0.00 | 0.00 | 0.00 | 70 | 1007.7 |
| 20260503011648 | 3 | 128 | 9.7 | 4.8 | 0.00 | 0.00 | 0.00 | 69 | 1007.8 |
| 20260503011149 | 3 | 148 | 6.4 | 9.7 | 0.00 | 0.00 | 0.00 | 69 | 1007.6 |
| 20260503010649 | 3 | 68 | 6.4 | 9.7 | 0.00 | 0.00 | 0.00 | 69 | 1007.5 |
| 20260503010149 | 3 | 97 | 8.0 | 14.5 | 0.00 | 0.00 | 0.00 | 69 | 1007.3 |
| 20260503005650 | 3 | 100 | 9.7 | 8.0 | 0.00 | 0.00 | 0.00 | 69 | 1007.3 |
| 20260503005148 | 3 | 76 | 6.4 | 8.0 | 0.00 | 0.00 | 0.00 | 69 | 1007.3 |